Weather History for Danbury, CT

Change the Weather History Date:

Sunday, February 3, 2013

  Actual Average Record
Temperature  
Mean Temperature 20 °F -  
Max Temperature 28 °F 37 °F 61 °F (1991)
Min Temperature 12 °F 20 °F -7 °F (1961)
Degree Days  
Heating Degree Days 45    
Moisture  
Dew Point 16 °F    
Average Humidity 83    
Maximum Humidity 96    
Minimum Humidity 51    
Precipitation  
Precipitation 0.01 in - - ()
Sea Level Pressure  
Sea Level Pressure 29.92 in    
Wind  
Wind Speed 1 mph (WNW)    
Max Wind Speed 6 mph    
Max Gust Speed -    
Visibility 6 miles    
Events Snow    
Averages and records for this station are not official NWS values.
T = Trace of Precipitation, MM = Missing Value Source: NWS Daily Summary

Daily Weather History Graph

Daily Weather History Graph

Search for Another Location

Airport:

Trip Planner

Search our weather history database for the weather conditions in past years. The results will help you decide how hot, cold, wet, or windy it might be!

Date:

Astronomy

Feb. 03, 2013 Rise Set
Actual Time 7:03 AM EST 5:13 PM EST
Civil Twilight 6:33 AM EST 5:42 PM EST
Nautical Twilight 6:00 AM EST 6:15 PM EST
Astronomical Twilight 5:28 AM EST 6:47 PM EST
Moon 12:27 AM EST (2/3) 10:48 AM EST (2/3)
Length of Visible Light 11h 08m
Length of Day
10h 10m
Waning Gibbous, 49% of the Moon is Illuminated
Feb 3
Waning Gibbous
Feb 10
New
Feb 17
First Quarter
Feb 25
Full
Mar 4
Last Quarter

Hourly Weather History & Observations

Time (EST) Temp. Windchill Dew Point Humidity Pressure Visibility Wind Dir Wind Speed Gust Speed Precip Events Conditions
12:00 AM 21.2 °F - 17.6 °F 86% 30.05 in 2.0 mi Calm Calm - 0.00 in Snow Light Snow
12:53 AM 21.0 °F - 19.0 °F 92% 30.04 in 2.0 mi Calm Calm - 0.00 in Snow Light Snow
1:13 AM 21.2 °F - 19.4 °F 93% 30.02 in 2.0 mi Calm Calm - 0.00 in Snow Light Snow
1:21 AM 21.2 °F - 19.4 °F 93% 30.02 in 1.5 mi Calm Calm - 0.00 in Snow Light Snow
1:40 AM 21.2 °F - 19.4 °F 93% 30.01 in 2.0 mi Calm Calm - 0.01 in Snow Light Snow
1:53 AM 21.0 °F - 19.0 °F 92% 30.03 in 3.0 mi Calm Calm - 0.01 in Snow Light Snow
2:04 AM 21.2 °F - 19.4 °F 93% 30.01 in 2.5 mi Calm Calm - 0.00 in Snow Light Snow
2:38 AM 21.2 °F - 19.4 °F 93% 29.99 in 3.0 mi Calm Calm - 0.00 in Snow Light Snow
2:53 AM 21.0 °F - 18.0 °F 88% 30.00 in 3.0 mi Calm Calm - 0.00 in Snow Light Snow
3:53 AM 19.9 °F - 18.0 °F 92% 29.98 in 5.0 mi Calm Calm - 0.00 in   Mostly Cloudy
4:03 AM 19.4 °F - 17.6 °F 93% 29.96 in 6.0 mi Calm Calm - N/A   Mostly Cloudy
4:53 AM 19.9 °F - 18.0 °F 92% 29.97 in 7.0 mi Calm Calm - N/A   Overcast
5:13 AM 17.6 °F - 15.8 °F 93% 29.94 in 7.0 mi Calm Calm - N/A   Scattered Clouds
5:53 AM 17.1 °F - 16.0 °F 96% 29.95 in 3.0 mi Calm Calm - N/A   Clear
6:24 AM 12.2 °F - 10.4 °F 92% 29.94 in 2.0 mi Calm Calm - N/A   Clear
6:33 AM 14.0 °F - 12.2 °F 93% 29.94 in 5.0 mi Calm Calm - N/A   Clear
6:53 AM 14.0 °F - 12.0 °F 92% 29.97 in 5.0 mi Calm Calm - N/A   Clear
7:53 AM 12.0 °F - 10.9 °F 95% 29.98 in 4.0 mi Calm Calm - N/A   Clear
8:53 AM 19.0 °F - 18.0 °F 96% 29.96 in 4.0 mi Calm Calm - N/A   Clear
9:53 AM 23.0 °F - 17.1 °F 78% 29.95 in 10.0 mi Calm Calm - N/A   Partly Cloudy
10:53 AM 26.1 °F 21.9 °F 16.0 °F 66% 29.93 in 10.0 mi Variable 3.5 mph - N/A   Clear
11:53 AM 27.0 °F 21.6 °F 16.0 °F 63% 29.89 in 10.0 mi NNE 4.6 mph - N/A   Clear
12:53 PM 27.0 °F 23.0 °F 14.0 °F 58% 29.85 in 10.0 mi WSW 3.5 mph - N/A   Clear
1:53 PM 28.0 °F 24.2 °F 14.0 °F 56% 29.81 in 10.0 mi West 3.5 mph - N/A   Partly Cloudy
2:53 PM 28.9 °F - 12.9 °F 51% 29.80 in 10.0 mi Calm Calm - N/A   Partly Cloudy
3:53 PM 28.0 °F 24.2 °F 15.1 °F 58% 29.80 in 10.0 mi North 3.5 mph - N/A   Mostly Cloudy
4:53 PM 27.0 °F 20.5 °F 14.0 °F 58% 29.79 in 10.0 mi WNW 5.8 mph - N/A   Partly Cloudy
5:53 PM 26.1 °F - 12.9 °F 58% 29.80 in 10.0 mi Calm Calm - N/A   Clear
6:53 PM 21.9 °F 17.2 °F 14.0 °F 72% 29.80 in 10.0 mi WSW 3.5 mph - N/A   Clear
7:53 PM 19.9 °F 12.1 °F 15.1 °F 81% 29.81 in 10.0 mi WSW 5.8 mph - N/A   Clear
8:53 PM 18.0 °F - 14.0 °F 84% 29.81 in 9.0 mi Calm Calm - N/A   Clear
9:53 PM 16.0 °F - 12.9 °F 88% 29.81 in 8.0 mi Calm Calm - N/A   Clear
10:53 PM 16.0 °F - 14.0 °F 92% 29.80 in 8.0 mi Calm Calm - N/A   Mostly Cloudy
11:53 PM 19.0 °F - 15.1 °F 85% 29.80 in 7.0 mi Calm Calm - N/A   Overcast